Home > Weather > Würselen > Past weeks

Flag for Germany Weather for the Past 2 Weeks in Würselen, North Rhine-Westphalia, Germany

Now
37 °F

Overcast.


Feels Like: 31 °F
Forecast: 35 / 39 °F
Wind: 8 mph from East

Location: Maastricht Airport Zuid Limburg

Current Time: Feb 13, 2016 at 2:11:27 PM

Latest Report: Feb 13, 2016 at 1:25 PM


Visibility: N/A

Pressure: 29.15 "Hg

Humidity: 87%

Dew point: 34 °F

Location of WürselenLocation

Historic Weather in Würselen — Graph

°F

Würselen Temperature Yesterday

Maximum temperature yesterday: 41 °F (at 10:25 AM)
Minimum temperature yesterday: 32 °F (at 10:55 PM)
Average temperature yesterday: 38 °F

High & Low Weather Summary for the Past Weeks

 TemperatureHumidityPressure
High54 °F (Jan 31, 10:55 PM)100% (Jan 31, 5:55 PM)30.30 "Hg (Jan 31, 5:55 PM)
Low28 °F (Feb 13, 12:55 AM)61% (Feb 3, 1:55 PM)28.82 "Hg (Feb 9, 2:55 PM)
Average44 °F84%29.76 "Hg
* Reported Jan 29 12:25 PM — Feb 13 12:55 PM, Würselen, Weather by CustomWeather, © 2016

Note: Actual official high and low records may vary slightly from our data, if they occured in-between our weather recording intervals... More about our weather records

Advertising

Würselen Weather History for the Previous 24 Hours

 ConditionsComfort  
Time TempWeatherWind HumidityBarometerVisibility
12:55 PM
Sat, Feb 13
39 °FOvercast.8 mph81%29.18 "HgN/A
12:25 PM39 °FPassing clouds.8 mph81%29.18 "HgN/A
11:55 AM37 °FBroken clouds.9 mph81%29.21 "HgN/A
11:25 AM36 °FOvercast.8 mph87%29.21 "Hg6 mi
10:55 AM34 °FOvercast.8 mph87%29.24 "Hg6 mi
10:25 AM34 °FOvercast.8 mph87%29.24 "Hg5 mi
9:55 AM34 °FOvercast.8 mph87%29.24 "Hg4 mi
9:25 AM32 °FMore clouds than sun.5 mph93%29.27 "Hg6 mi
8:55 AM30 °FOvercast.5 mph93%29.30 "Hg5 mi
8:25 AM30 °FPassing clouds.5 mph86%29.30 "HgN/A
7:55 AM28 °FOvercast.2 mph93%29.30 "Hg6 mi
7:25 AM28 °FClear.3 mph93%29.30 "Hg5 mi
6:55 AM28 °FClear.3 mph93%29.33 "Hg6 mi
6:25 AM28 °FClear.2 mph93%29.33 "HgN/A
5:55 AM30 °FClear.6 mph86%29.33 "Hg5 mi
5:25 AM30 °FIce fog.5 mph86%29.33 "Hg2 mi
4:55 AM30 °FIce fog.2 mph93%29.36 "Hg3 mi
4:25 AM30 °FClear.6 mph93%29.36 "HgN/A
3:55 AM30 °FChilly.8 mph93%29.36 "HgN/A
3:25 AM30 °FClear.6 mph86%29.36 "HgN/A
2:55 AM30 °FClear.5 mph86%29.39 "HgN/A
2:25 AM30 °FClear.3 mph86%29.39 "HgN/A
1:55 AM30 °FClear.6 mph86%29.39 "HgN/A
1:25 AM28 °FClear.7 mph93%29.39 "HgN/A
12:55 AM28 °FClear.7 mph93%29.39 "HgN/A
12:25 AM30 °FClear.6 mph86%29.39 "HgN/A
11:55 PM
Fri, Feb 12
32 °FClear.7 mph87%29.39 "HgN/A
10:55 PM32 °FClear.7 mph87%29.39 "HgN/A
10:25 PM34 °FClear.8 mph81%29.39 "HgN/A
9:55 PM34 °FChilly.10 mph81%29.39 "HgN/A
9:25 PM34 °FClear.9 mph81%29.39 "HgN/A
8:55 PM34 °FClear.10 mph81%29.39 "HgN/A
8:25 PM36 °FClear.12 mph75%29.39 "HgN/A
7:55 PM34 °FClear.9 mph81%29.42 "HgN/A
7:25 PM36 °FClear.7 mph75%29.42 "HgN/A
6:55 PM36 °FClear.9 mph75%29.39 "HgN/A
6:25 PM37 °FClear.10 mph75%29.39 "HgN/A
5:55 PM37 °FClear.12 mph75%29.39 "HgN/A
5:25 PM39 °FClear.12 mph65%29.39 "HgN/A
4:55 PM39 °FClear.13 mph70%29.39 "HgN/A
4:25 PM41 °FClear.13 mph61%29.39 "HgN/A
3:55 PM41 °FClear.10 mph66%29.42 "HgN/A
3:25 PM41 °FClear.13 mph61%29.42 "HgN/A
2:55 PM41 °FClear.12 mph66%29.42 "HgN/A
2:25 PM41 °FPassing clouds.9 mph66%29.45 "HgN/A
Weather by CustomWeather, © 2016

See weather overviewHow to use our weather pages